26-06-2022, 00:00:04,    150,    0.8,    9.7,   0.00,   0.00, 1006.8,   79.0, -999.0
26-06-2022, 00:00:13,    150,    0.7,    9.8,   0.00,   0.00, 1006.8,   79.1, -999.0
26-06-2022, 00:00:23,    150,    0.1,    9.7,   0.00,   0.00, 1006.7,   78.8, -999.0
26-06-2022, 00:00:33,    150,    0.0,    9.7,   0.00,   0.00, 1006.6,   78.7, -999.0
26-06-2022, 00:00:43,    136,    0.1,    9.7,   0.00,   0.00, 1006.7,   78.9, -999.0
26-06-2022, 00:00:53,    136,    0.5,    9.8,   0.00,   0.00, 1006.8,   79.2, -999.0
26-06-2022, 00:01:03,    135,    0.0,    9.7,   0.00,   0.00, 1006.7,   78.8, -999.0
26-06-2022, 00:01:13,    136,    0.0,    9.7,   0.00,   0.00, 1006.7,   78.8, -999.0
26-06-2022, 00:01:23,    136,    0.0,    9.7,   0.00,   0.00, 1006.7,   78.6, -999.0
26-06-2022, 00:01:33,    135,    0.0,    9.7,   0.00,   0.00, 1006.6,   78.7, -999.0
26-06-2022, 00:01:43,    136,    0.0,    9.6,   0.00,   0.00, 1006.7,   78.7, -999.0
26-06-2022, 00:01:52,    234,    0.6,    9.7,   0.00,   0.00, 1006.8,   78.8, -999.0
26-06-2022, 00:02:03,    170,    0.1,    9.7,   0.00,   0.00, 1006.7,   78.7, -999.0
26-06-2022, 00:02:13,    169,    0.5,    9.7,   0.00,   0.00, 1006.8,   78.9, -999.0
26-06-2022, 00:02:22,    169,    0.1,    9.7,   0.00,   0.00, 1006.7,   78.7, -999.0
26-06-2022, 00:02:33,    169,    0.0,    9.6,   0.00,   0.00, 1006.6,   78.6, -999.0
26-06-2022, 00:02:43,    169,    0.0,    9.5,   0.00,   0.00, 1006.6,   78.7, -999.0
26-06-2022, 00:02:52,    169,    0.0,    9.5,   0.00,   0.00, 1006.6,   78.6, -999.0
26-06-2022, 00:03:02,    169,    0.0,    9.6,   0.00,   0.00, 1006.6,   78.7, -999.0
26-06-2022, 00:03:12,    169,    0.0,    9.6,   0.00,   0.00, 1006.6,   78.7, -999.0
26-06-2022, 00:03:22,    169,    0.0,    9.6,   0.00,   0.00, 1006.6,   78.8, -999.0
26-06-2022, 00:03:32,    155,    0.3,    9.7,   0.00,   0.00, 1006.7,   79.0, -999.0
26-06-2022, 00:03:42,    155,    0.0,    9.7,   0.00,   0.00, 1006.6,   79.0, -999.0
26-06-2022, 00:03:52,    146,    0.6,    9.7,   0.00,   0.00, 1006.7,   79.3, -999.0
26-06-2022, 00:04:02,    152,    1.8,    9.6,   0.00,   0.00, 1006.7,   79.2, -999.0
26-06-2022, 00:04:12,    151,    0.8,    9.7,   0.00,   0.00, 1006.7,   79.3, -999.0
26-06-2022, 00:04:22,    150,    0.0,    9.7,   0.00,   0.00, 1006.6,   78.9, -999.0
26-06-2022, 00:04:32,    151,    0.0,    9.6,   0.00,   0.00, 1006.6,   78.9, -999.0
26-06-2022, 00:04:42,    151,    0.0,    9.6,   0.00,   0.00, 1006.5,   78.8, -999.0
26-06-2022, 00:04:52,    151,    0.0,    9.6,   0.00,   0.00, 1006.6,   78.7, -999.0
26-06-2022, 00:05:02,    151,    0.0,    9.6,   0.00,   0.00, 1006.6,   78.7, -999.0
26-06-2022, 00:05:12,    151,    1.1,    9.7,   0.00,   0.00, 1006.7,   79.3, -999.0
26-06-2022, 00:05:22,    150,    0.3,    9.6,   0.00,   0.00, 1006.7,   79.1, -999.0
26-06-2022, 00:05:31,    140,    1.6,    9.6,   0.00,   0.00, 1006.7,   79.1, -999.0
26-06-2022, 00:05:42,    137,    1.8,    9.7,   0.00,   0.00, 1006.7,   79.5, -999.0
26-06-2022, 00:05:51,    136,    0.9,    9.7,   0.00,   0.00, 1006.7,   79.3, -999.0
26-06-2022, 00:06:01,    138,    0.6,    9.7,   0.00,   0.00, 1006.7,   79.3, -999.0
26-06-2022, 00:06:11,    138,    0.2,    9.7,   0.00,   0.00, 1006.6,   79.4, -999.0
26-06-2022, 00:06:21,    139,    0.0,    9.6,   0.00,   0.00, 1006.6,   78.9, -999.0
26-06-2022, 00:06:31,    146,    0.3,    9.6,   0.00,   0.00, 1006.6,   79.1, -999.0
26-06-2022, 00:06:41,    146,    0.0,    9.5,   0.00,   0.00, 1006.5,   79.0, -999.0
26-06-2022, 00:06:51,    175,    0.5,    9.5,   0.00,   0.00, 1006.6,   79.1, -999.0
26-06-2022, 00:07:01,    147,    2.5,    9.6,   0.00,   0.00, 1006.7,   79.4, -999.0
26-06-2022, 00:07:11,    146,    0.1,    9.6,   0.00,   0.00, 1006.6,   79.2, -999.0
26-06-2022, 00:07:21,    161,    0.9,    9.6,   0.00,   0.00, 1006.6,   79.5, -999.0
26-06-2022, 00:07:31,    166,    0.6,    9.6,   0.00,   0.00, 1006.6,   79.3, -999.0
26-06-2022, 00:07:41,    187,    0.8,    9.6,   0.00,   0.00, 1006.7,   79.4, -999.0
26-06-2022, 00:07:51,    186,    0.2,    9.5,   0.00,   0.00, 1006.6,   79.3, -999.0
26-06-2022, 00:08:01,    187,    0.0,    9.4,   0.00,   0.00, 1006.6,   79.2, -999.0
26-06-2022, 00:08:11,    167,    0.8,    9.5,   0.00,   0.00, 1006.6,   79.5, -999.0
26-06-2022, 00:08:21,    168,    0.0,    9.5,   0.00,   0.00, 1006.5,   79.2, -999.0
26-06-2022, 00:08:30,    167,    0.0,    9.5,   0.00,   0.00, 1006.5,   79.2, -999.0
26-06-2022, 00:08:41,    146,    0.5,    9.6,   0.00,   0.00, 1006.6,   79.5, -999.0
26-06-2022, 00:08:51,    151,    0.4,    9.5,   0.00,   0.00, 1006.6,   79.7, -999.0
26-06-2022, 00:09:00,    165,    0.1,    9.5,   0.00,   0.00, 1006.6,   79.4, -999.0
26-06-2022, 00:09:10,    182,    0.1,    9.5,   0.00,   0.00, 1006.6,   79.7, -999.0
26-06-2022, 00:09:21,    181,    0.2,    9.6,   0.00,   0.00, 1006.6,   79.6, -999.0
26-06-2022, 00:09:30,    181,    0.0,    9.6,   0.00,   0.00, 1006.5,   79.4, -999.0
26-06-2022, 00:09:40,    181,    0.0,    9.5,   0.00,   0.00, 1006.5,   79.3, -999.0
26-06-2022, 00:09:50,    181,    0.1,    9.6,   0.00,   0.00, 1006.6,   79.8, -999.0
26-06-2022, 00:10:00,    130,    0.1,    9.6,   0.00,   0.00, 1006.5,   79.5, -999.0
26-06-2022, 00:10:10,    174,    2.1,    9.6,   0.00,   0.00, 1006.7,   79.8, -999.0
26-06-2022, 00:10:20,    160,    0.9,    9.6,   0.00,   0.00, 1006.7,   79.6, -999.0
26-06-2022, 00:10:30,    160,    0.5,    9.5,   0.00,   0.00, 1006.6,   79.7, -999.0
26-06-2022, 00:10:40,    169,    1.8,    9.5,   0.00,   0.00, 1006.6,   79.7, -999.0
26-06-2022, 00:10:50,    182,    0.4,    9.6,   0.00,   0.00, 1006.6,   79.8, -999.0
26-06-2022, 00:11:00,    171,    0.8,    9.6,   0.00,   0.00, 1006.6,   80.0, -999.0
26-06-2022, 00:11:09,    150,    2.6,    9.6,   0.00,   0.00, 1006.7,   80.1, -999.0
26-06-2022, 00:11:20,    110,    1.3,    9.6,   0.00,   0.00, 1006.6,   79.8, -999.0
26-06-2022, 00:11:30,    114,    0.2,    9.5,   0.00,   0.00, 1006.6,   79.7, -999.0
26-06-2022, 00:11:39,    122,    0.3,    9.5,   0.00,   0.00, 1006.6,   79.8, -999.0
26-06-2022, 00:11:50,    169,    0.9,    9.6,   0.00,   0.00, 1006.6,   79.9, -999.0
26-06-2022, 00:12:00,    145,    0.8,    9.5,   0.00,   0.00, 1006.6,   80.0, -999.0
26-06-2022, 00:12:09,    150,    0.3,    9.5,   0.00,   0.00, 1006.6,   80.0, -999.0
26-06-2022, 00:12:19,    184,    1.0,    9.5,   0.00,   0.00, 1006.6,   79.9, -999.0
26-06-2022, 00:12:29,    170,    1.4,    9.6,   0.00,   0.00, 1006.6,   80.0, -999.0
26-06-2022, 00:12:39,    141,    1.1,    9.6,   0.00,   0.00, 1006.7,   80.1, -999.0
26-06-2022, 00:12:49,    192,    1.0,    9.6,   0.00,   0.00, 1006.7,   80.1, -999.0
26-06-2022, 00:12:59,    146,    1.7,    9.5,   0.00,   0.00, 1006.7,   80.0, -999.0
26-06-2022, 00:13:09,    174,    2.3,    9.5,   0.00,   0.00, 1006.7,   80.0, -999.0
26-06-2022, 00:13:19,    188,    0.3,    9.6,   0.00,   0.00, 1006.6,   80.0, -999.0
26-06-2022, 00:13:29,    187,    0.0,    9.4,   0.00,   0.00, 1006.5,   79.7, -999.0
26-06-2022, 00:13:39,    187,    0.0,    9.4,   0.00,   0.00, 1006.6,   79.8, -999.0
26-06-2022, 00:13:49,    184,    0.1,    9.4,   0.00,   0.00, 1006.6,   80.0, -999.0
26-06-2022, 00:13:59,    184,    0.4,    9.5,   0.00,   0.00, 1006.6,   80.4, -999.0
26-06-2022, 00:14:09,    125,    0.9,    9.5,   0.00,   0.00, 1006.7,   80.1, -999.0
26-06-2022, 00:14:19,    126,    1.6,    9.5,   0.00,   0.00, 1006.7,   80.2, -999.0
26-06-2022, 00:14:29,    141,    0.9,    9.5,   0.00,   0.00, 1006.7,   80.3, -999.0
26-06-2022, 00:14:39,    139,    0.4,    9.4,   0.00,   0.00, 1006.6,   80.2, -999.0
26-06-2022, 00:14:48,    198,    0.1,    9.5,   0.00,   0.00, 1006.6,   80.0, -999.0
26-06-2022, 00:14:59,    198,    0.0,    9.4,   0.00,   0.00, 1006.5,   79.9, -999.0
26-06-2022, 00:15:09,    195,    0.1,    9.3,   0.00,   0.00, 1006.6,   80.1, -999.0
26-06-2022, 00:15:18,    174,    0.8,    9.5,   0.00,   0.00, 1006.6,   80.3, -999.0
26-06-2022, 00:15:38,    145,    0.9,    9.5,   0.00,   0.00, 1006.6,   80.4, -999.0
26-06-2022, 00:15:48,    106,    1.0,    9.5,   0.00,   0.00, 1006.6,   80.2, -999.0
26-06-2022, 00:15:58,    140,    0.2,    9.5,   0.00,   0.00, 1006.6,   80.3, -999.0
26-06-2022, 00:16:08,    141,    0.0,    9.4,   0.00,   0.00, 1006.5,   80.1, -999.0
26-06-2022, 00:16:18,    146,    1.5,    9.6,   0.00,   0.00, 1006.7,   80.4, -999.0
26-06-2022, 00:16:28,    147,    0.2,    9.6,   0.00,   0.00, 1006.6,   80.3, -999.0
26-06-2022, 00:16:38,    147,    0.0,    9.5,   0.00,   0.00, 1006.5,   80.2, -999.0
26-06-2022, 00:16:48,    147,    0.2,    9.5,   0.00,   0.00, 1006.6,   80.1, -999.0
26-06-2022, 00:16:58,    146,    0.4,    9.3,   0.00,   0.00, 1006.6,   80.2, -999.0
26-06-2022, 00:17:08,    151,    0.6,    9.5,   0.00,   0.00, 1006.6,   80.4, -999.0
26-06-2022, 00:17:18,    163,    1.2,    9.5,   0.00,   0.00, 1006.6,   80.5, -999.0
26-06-2022, 00:17:28,    205,    2.7,    9.5,   0.00,   0.00, 1006.7,   80.7, -999.0
26-06-2022, 00:17:38,    222,    0.9,    9.5,   0.00,   0.00, 1006.7,   80.3, -999.0
26-06-2022, 00:17:47,    199,    0.0,    9.5,   0.00,   0.00, 1006.5,   80.1, -999.0
26-06-2022, 00:17:58,    191,    0.1,    9.5,   0.00,   0.00, 1006.6,   80.3, -999.0
26-06-2022, 00:18:08,    165,    0.5,    9.5,   0.00,   0.00, 1006.6,   80.4, -999.0
26-06-2022, 00:18:17,    165,    0.2,    9.5,   0.00,   0.00, 1006.6,   80.3, -999.0
26-06-2022, 00:18:27,    155,    0.3,    9.5,   0.00,   0.00, 1006.6,   80.3, -999.0
26-06-2022, 00:18:38,    155,    0.2,    9.5,   0.00,   0.00, 1006.6,   80.4, -999.0
26-06-2022, 00:18:47,    155,    0.0,    9.4,   0.00,   0.00, 1006.5,   80.2, -999.0
26-06-2022, 00:18:57,    155,    0.0,    9.4,   0.00,   0.00, 1006.5,   80.2, -999.0
26-06-2022, 00:19:07,    164,    0.0,    9.4,   0.00,   0.00, 1006.5,   80.1, -999.0
26-06-2022, 00:19:17,    162,    2.4,    9.5,   0.00,   0.00, 1006.7,   80.5, -999.0
26-06-2022, 00:19:27,    162,    0.6,    9.5,   0.00,   0.00, 1006.7,   80.5, -999.0
26-06-2022, 00:19:37,    162,    0.0,    9.4,   0.00,   0.00, 1006.5,   80.1, -999.0
26-06-2022, 00:19:47,    162,    0.2,    9.4,   0.00,   0.00, 1006.6,   80.4, -999.0
26-06-2022, 00:19:57,    162,    0.0,    9.4,   0.00,   0.00, 1006.5,   80.1, -999.0
26-06-2022, 00:20:07,    162,    0.1,    9.4,   0.00,   0.00, 1006.6,   80.5, -999.0
26-06-2022, 00:20:17,    155,    0.0,    9.4,   0.00,   0.00, 1006.5,   80.2, -999.0
26-06-2022, 00:20:27,    162,    0.1,    9.4,   0.00,   0.00, 1006.6,   80.5, -999.0
26-06-2022, 00:20:37,    175,    0.7,    9.5,   0.00,   0.00, 1006.7,   80.8, -999.0
26-06-2022, 00:20:47,    197,    0.6,    9.5,   0.00,   0.00, 1006.7,   80.6, -999.0
26-06-2022, 00:20:57,    196,    0.0,    9.4,   0.00,   0.00, 1006.6,   80.4, -999.0
26-06-2022, 00:21:06,    196,    0.0,    9.4,   0.00,   0.00, 1006.6,   80.3, -999.0
26-06-2022, 00:21:17,    195,    0.0,    9.4,   0.00,   0.00, 1006.6,   80.4, -999.0
26-06-2022, 00:21:27,    180,    0.0,    9.3,   0.00,   0.00, 1006.6,   80.4, -999.0
26-06-2022, 00:21:36,    180,    0.8,    9.4,   0.00,   0.00, 1006.7,   80.7, -999.0
26-06-2022, 00:21:46,    180,    0.5,    9.5,   0.00,   0.00, 1006.7,   80.7, -999.0
26-06-2022, 00:21:56,    183,    0.5,    9.4,   0.00,   0.00, 1006.7,   80.6, -999.0
26-06-2022, 00:22:06,    182,    0.0,    9.3,   0.00,   0.00, 1006.6,   80.3, -999.0
26-06-2022, 00:22:16,    182,    0.0,    9.4,   0.00,   0.00, 1006.6,   80.4, -999.0
26-06-2022, 00:22:26,    179,    0.0,    9.4,   0.00,   0.00, 1006.6,   80.4, -999.0
26-06-2022, 00:22:36,    179,    0.0,    9.3,   0.00,   0.00, 1006.6,   80.3, -999.0
26-06-2022, 00:22:46,    157,    0.1,    9.2,   0.00,   0.00, 1006.6,   80.3, -999.0
26-06-2022, 00:22:56,    152,    0.6,    9.2,   0.00,   0.00, 1006.6,   80.7, -999.0
26-06-2022, 00:23:06,    141,    0.8,    9.4,   0.00,   0.00, 1006.6,   80.8, -999.0
26-06-2022, 00:23:16,    175,    1.6,    9.5,   0.00,   0.00, 1006.7,   80.8, -999.0
26-06-2022, 00:23:26,    173,    0.4,    9.4,   0.00,   0.00, 1006.7,   81.1, -999.0
26-06-2022, 00:23:36,    173,    0.2,    9.4,   0.00,   0.00, 1006.6,   80.7, -999.0
26-06-2022, 00:23:46,    172,    0.3,    9.4,   0.00,   0.00, 1006.7,   80.9, -999.0
26-06-2022, 00:23:56,    148,    1.0,    9.4,   0.00,   0.00, 1006.7,   81.1, -999.0
26-06-2022, 00:24:06,    170,    1.4,    9.5,   0.00,   0.00, 1006.7,   81.1, -999.0
26-06-2022, 00:24:15,    169,    0.0,    9.3,   0.00,   0.00, 1006.6,   80.8, -999.0
26-06-2022, 00:24:26,    170,    0.0,    9.3,   0.00,   0.00, 1006.6,   80.8, -999.0
26-06-2022, 00:24:35,    170,    0.1,    9.3,   0.00,   0.00, 1006.6,   81.0, -999.0
26-06-2022, 00:24:45,    147,    1.3,    9.5,   0.00,   0.00, 1006.7,   81.2, -999.0
26-06-2022, 00:24:55,    149,    0.3,    9.4,   0.00,   0.00, 1006.7,   81.1, -999.0
26-06-2022, 00:25:05,    146,    0.0,    9.4,   0.00,   0.00, 1006.6,   80.9, -999.0
26-06-2022, 00:25:15,    146,    0.0,    9.4,   0.00,   0.00, 1006.6,   80.9, -999.0
26-06-2022, 00:25:25,    146,    0.0,    9.4,   0.00,   0.00, 1006.6,   81.0, -999.0
26-06-2022, 00:25:35,    176,    0.0,    9.4,   0.00,   0.00, 1006.6,   81.1, -999.0
26-06-2022, 00:25:45,    176,    1.0,    9.5,   0.00,   0.00, 1006.7,   81.4, -999.0
26-06-2022, 00:25:55,    176,    0.1,    9.4,   0.00,   0.00, 1006.6,   80.9, -999.0
26-06-2022, 00:26:05,    176,    0.0,    9.4,   0.00,   0.00, 1006.6,   80.9, -999.0
26-06-2022, 00:26:15,    176,    0.1,    9.4,   0.00,   0.00, 1006.7,   80.9, -999.0
26-06-2022, 00:26:25,    176,    0.0,    9.4,   0.00,   0.00, 1006.6,   80.8, -999.0
26-06-2022, 00:26:35,    167,    0.9,    9.5,   0.00,   0.00, 1006.7,   81.2, -999.0
26-06-2022, 00:26:45,    166,    1.7,    9.5,   0.00,   0.00, 1006.7,   81.2, -999.0
26-06-2022, 00:26:55,    166,    0.1,    9.5,   0.00,   0.00, 1006.7,   81.0, -999.0
26-06-2022, 00:27:05,    165,    0.2,    9.5,   0.00,   0.00, 1006.6,   81.1, -999.0
26-06-2022, 00:27:14,    165,    0.0,    9.4,   0.00,   0.00, 1006.6,   80.9, -999.0
26-06-2022, 00:27:25,    165,    0.0,    9.4,   0.00,   0.00, 1006.7,   80.9, -999.0
26-06-2022, 00:27:35,    165,    0.5,    9.5,   0.00,   0.00, 1006.7,   81.1, -999.0
26-06-2022, 00:27:44,    165,    0.0,    9.4,   0.00,   0.00, 1006.6,   80.9, -999.0
26-06-2022, 00:27:54,    165,    0.0,    9.4,   0.00,   0.00, 1006.6,   80.9, -999.0
26-06-2022, 00:28:05,    165,    0.3,    9.4,   0.00,   0.00, 1006.6,   81.0, -999.0
26-06-2022, 00:28:14,    128,    1.5,    9.5,   0.00,   0.00, 1006.7,   81.2, -999.0
26-06-2022, 00:28:24,    162,    0.7,    9.4,   0.00,   0.00, 1006.7,   81.1, -999.0
26-06-2022, 00:28:34,    187,    0.2,    9.4,   0.00,   0.00, 1006.7,   81.1, -999.0
26-06-2022, 00:28:44,    176,    0.2,    9.4,   0.00,   0.00, 1006.7,   81.2, -999.0
26-06-2022, 00:28:54,    171,    0.1,    9.4,   0.00,   0.00, 1006.6,   81.0, -999.0
26-06-2022, 00:29:04,    171,    0.3,    9.5,   0.00,   0.00, 1006.7,   81.1, -999.0
26-06-2022, 00:29:14,    154,    0.0,    9.4,   0.00,   0.00, 1006.7,   81.0, -999.0
26-06-2022, 00:29:24,    154,    0.0,    9.4,   0.00,   0.00, 1006.7,   81.1, -999.0
26-06-2022, 00:29:34,    154,    0.0,    9.4,   0.00,   0.00, 1006.6,   80.9, -999.0
26-06-2022, 00:29:44,    154,    0.0,    9.5,   0.00,   0.00, 1006.7,   80.9, -999.0
26-06-2022, 00:29:54,    155,    0.0,    9.4,   0.00,   0.00, 1006.7,   80.7, -999.0
26-06-2022, 00:30:04,    157,    0.4,    9.4,   0.00,   0.00, 1006.7,   80.8, -999.0
26-06-2022, 00:30:14,    146,    0.6,    9.3,   0.00,   0.00, 1006.8,   81.0, -999.0
26-06-2022, 00:30:23,    152,    0.1,    9.3,   0.00,   0.00, 1006.7,   80.8, -999.0
26-06-2022, 00:30:34,    153,    0.0,    9.3,   0.00,   0.00, 1006.7,   80.7, -999.0
26-06-2022, 00:30:44,    153,    0.0,    9.3,   0.00,   0.00, 1006.7,   80.9, -999.0
26-06-2022, 00:30:53,    149,    0.4,    9.4,   0.00,   0.00, 1006.8,   81.1, -999.0
26-06-2022, 00:31:03,    149,    0.0,    9.3,   0.00,   0.00, 1006.7,   81.0, -999.0
26-06-2022, 00:31:14,    149,    0.0,    9.2,   0.00,   0.00, 1006.6,   80.8, -999.0
26-06-2022, 00:31:23,    149,    0.0,    9.2,   0.00,   0.00, 1006.6,   80.8, -999.0
26-06-2022, 00:31:33,    149,    0.0,    9.3,   0.00,   0.00, 1006.7,   80.7, -999.0
26-06-2022, 00:31:43,    149,    0.0,    9.3,   0.00,   0.00, 1006.7,   81.0, -999.0
26-06-2022, 00:31:53,    149,    0.0,    9.2,   0.00,   0.00, 1006.6,   80.9, -999.0
26-06-2022, 00:32:03,    149,    0.0,    9.3,   0.00,   0.00, 1006.7,   81.0, -999.0
26-06-2022, 00:32:13,    149,    0.0,    9.3,   0.00,   0.00, 1006.7,   80.9, -999.0
26-06-2022, 00:32:23,    149,    0.0,    9.2,   0.00,   0.00, 1006.6,   80.9, -999.0
26-06-2022, 00:32:33,    149,    0.0,    9.3,   0.00,   0.00, 1006.6,   81.0, -999.0
26-06-2022, 00:32:43,    149,    0.0,    9.3,   0.00,   0.00, 1006.6,   80.9, -999.0
26-06-2022, 00:32:53,    149,    0.0,    9.3,   0.00,   0.00, 1006.6,   81.1, -999.0
26-06-2022, 00:33:03,    149,    0.0,    9.3,   0.00,   0.00, 1006.7,   81.1, -999.0
26-06-2022, 00:33:13,    149,    0.5,    9.4,   0.00,   0.00, 1006.7,   81.3, -999.0
26-06-2022, 00:33:23,    155,    0.5,    9.3,   0.00,   0.00, 1006.7,   81.2, -999.0
26-06-2022, 00:33:32,    151,    0.8,    9.3,   0.00,   0.00, 1006.8,   81.5, -999.0
26-06-2022, 00:33:43,    153,    0.0,    9.3,   0.00,   0.00, 1006.7,   81.1, -999.0
26-06-2022, 00:33:53,    149,    0.0,    9.3,   0.00,   0.00, 1006.7,   81.2, -999.0
26-06-2022, 00:34:02,    149,    0.0,    9.2,   0.00,   0.00, 1006.7,   81.2, -999.0
26-06-2022, 00:34:13,    149,    0.1,    9.3,   0.00,   0.00, 1006.7,   81.3, -999.0
26-06-2022, 00:34:22,    149,    0.0,    9.3,   0.00,   0.00, 1006.7,   81.4, -999.0
26-06-2022, 00:34:32,    149,    0.0,    9.3,   0.00,   0.00, 1006.6,   81.2, -999.0
26-06-2022, 00:34:42,    149,    0.0,    9.3,   0.00,   0.00, 1006.7,   81.3, -999.0
26-06-2022, 00:34:52,    162,    0.0,    9.3,   0.00,   0.00, 1006.6,   81.3, -999.0
26-06-2022, 00:35:02,    163,    0.1,    9.3,   0.00,   0.00, 1006.8,   81.4, -999.0
26-06-2022, 00:35:12,    160,    0.4,    9.4,   0.00,   0.00, 1006.8,   81.5, -999.0
26-06-2022, 00:35:22,    160,    0.2,    9.4,   0.00,   0.00, 1006.7,   81.5, -999.0
26-06-2022, 00:35:32,    160,    0.0,    9.2,   0.00,   0.00, 1006.7,   81.3, -999.0
26-06-2022, 00:35:42,    160,    0.0,    9.2,   0.00,   0.00, 1006.7,   81.1, -999.0
26-06-2022, 00:35:52,    157,    0.0,    9.3,   0.00,   0.00, 1006.7,   81.3, -999.0
26-06-2022, 00:36:02,    171,    0.6,    9.2,   0.00,   0.00, 1006.8,   81.6, -999.0
26-06-2022, 00:36:12,    181,    1.3,    9.2,   0.00,   0.00, 1006.8,   81.7, -999.0
26-06-2022, 00:36:22,    180,    0.1,    9.3,   0.00,   0.00, 1006.7,   81.4, -999.0
26-06-2022, 00:36:32,    178,    0.0,    9.3,   0.00,   0.00, 1006.7,   81.5, -999.0
26-06-2022, 00:36:42,    178,    0.0,    9.2,   0.00,   0.00, 1006.7,   81.4, -999.0
26-06-2022, 00:36:52,    178,    0.0,    9.3,   0.00,   0.00, 1006.7,   81.4, -999.0
26-06-2022, 00:37:01,    178,    0.0,    9.2,   0.00,   0.00, 1006.7,   81.3, -999.0
26-06-2022, 00:37:11,    178,    0.0,    9.3,   0.00,   0.00, 1006.7,   81.4, -999.0
26-06-2022, 00:37:22,    178,    0.0,    9.3,   0.00,   0.00, 1006.7,   81.5, -999.0
26-06-2022, 00:37:31,    178,    0.0,    9.3,   0.00,   0.00, 1006.7,   81.5, -999.0
26-06-2022, 00:37:41,    178,    0.0,    9.3,   0.00,   0.00, 1006.7,   81.4, -999.0
26-06-2022, 00:37:51,    178,    0.0,    9.2,   0.00,   0.00, 1006.7,   81.4, -999.0
26-06-2022, 00:38:01,    209,    0.4,    9.4,   0.00,   0.00, 1006.8,   81.8, -999.0
26-06-2022, 00:38:11,    208,    0.1,    9.3,   0.00,   0.00, 1006.7,   81.5, -999.0
26-06-2022, 00:38:21,    210,    0.0,    9.1,   0.00,   0.00, 1006.7,   81.5, -999.0
26-06-2022, 00:38:31,    209,    0.0,    9.2,   0.00,   0.00, 1006.7,   81.4, -999.0
26-06-2022, 00:38:43,    210,    0.0,    9.2,   0.00,   0.00, 1006.7,   81.5, -999.0
26-06-2022, 00:38:51,    202,    0.0,    9.2,   0.00,   0.00, 1006.7,   81.4, -999.0
26-06-2022, 00:39:01,    194,    0.1,    9.3,   0.00,   0.00, 1006.8,   81.6, -999.0
26-06-2022, 00:39:11,    194,    0.2,    9.2,   0.00,   0.00, 1006.8,   81.7, -999.0
26-06-2022, 00:39:21,    194,    0.0,    9.2,   0.00,   0.00, 1006.7,   81.5, -999.0
26-06-2022, 00:39:31,    194,    0.0,    9.3,   0.00,   0.00, 1006.8,   81.7, -999.0
26-06-2022, 00:39:40,    193,    0.1,    9.3,   0.00,   0.00, 1006.8,   81.7, -999.0
26-06-2022, 00:39:51,    193,    0.0,    9.3,   0.00,   0.00, 1006.8,   81.7, -999.0
26-06-2022, 00:40:01,    193,    0.0,    9.2,   0.00,   0.00, 1006.7,   81.6, -999.0
26-06-2022, 00:40:10,    194,    0.0,    9.2,   0.00,   0.00, 1006.7,   81.6, -999.0
26-06-2022, 00:40:20,    193,    0.0,    9.3,   0.00,   0.00, 1006.7,   81.6, -999.0
26-06-2022, 00:40:31,    193,    0.0,    9.2,   0.00,   0.00, 1006.7,   81.6, -999.0
26-06-2022, 00:40:40,    193,    0.0,    9.2,   0.00,   0.00, 1006.7,   81.7, -999.0
26-06-2022, 00:40:50,    193,    0.0,    9.2,   0.00,   0.00, 1006.7,   81.5, -999.0
26-06-2022, 00:41:00,    193,    0.0,    9.2,   0.00,   0.00, 1006.7,   81.5, -999.0
26-06-2022, 00:41:10,    194,    0.0,    9.2,   0.00,   0.00, 1006.7,   81.7, -999.0
26-06-2022, 00:41:20,    194,    0.2,    9.3,   0.00,   0.00, 1006.8,   81.9, -999.0
26-06-2022, 00:41:30,    147,    0.1,    9.3,   0.00,   0.00, 1006.8,   81.8, -999.0
26-06-2022, 00:41:40,    152,    1.0,    9.3,   0.00,   0.00, 1006.8,   81.9, -999.0
26-06-2022, 00:41:50,    152,    0.0,    9.1,   0.00,   0.00, 1006.7,   81.6, -999.0
26-06-2022, 00:42:00,    163,    0.2,    9.3,   0.00,   0.00, 1006.8,   81.7, -999.0
26-06-2022, 00:42:10,    164,    0.0,    9.2,   0.00,   0.00, 1006.7,   81.6, -999.0
26-06-2022, 00:42:20,    164,    0.0,    9.2,   0.00,   0.00, 1006.7,   81.6, -999.0
26-06-2022, 00:42:30,    162,    0.0,    9.2,   0.00,   0.00, 1006.7,   81.7, -999.0
26-06-2022, 00:42:40,    170,    0.0,    9.2,   0.00,   0.00, 1006.7,   81.8, -999.0
26-06-2022, 00:42:50,    171,    0.0,    9.1,   0.00,   0.00, 1006.7,   81.6, -999.0
26-06-2022, 00:43:00,    170,    0.0,    9.2,   0.00,   0.00, 1006.7,   81.6, -999.0
26-06-2022, 00:43:10,    170,    0.0,    9.1,   0.00,   0.00, 1006.7,   81.7, -999.0
26-06-2022, 00:43:19,    170,    0.0,    9.3,   0.00,   0.00, 1006.7,   81.8, -999.0
26-06-2022, 00:43:30,    170,    0.0,    9.2,   0.00,   0.00, 1006.7,   81.8, -999.0
26-06-2022, 00:43:39,    170,    0.0,    9.2,   0.00,   0.00, 1006.7,   81.8, -999.0
26-06-2022, 00:43:49,    168,    0.1,    9.2,   0.00,   0.00, 1006.7,   82.0, -999.0
26-06-2022, 00:43:59,    156,    1.1,    9.3,   0.00,   0.00, 1006.8,   82.3, -999.0
26-06-2022, 00:44:09,    162,    0.2,    9.3,   0.00,   0.00, 1006.8,   82.2, -999.0
26-06-2022, 00:44:19,    166,    0.3,    9.4,   0.00,   0.00, 1006.8,   82.1, -999.0
26-06-2022, 00:44:29,    152,    1.1,    9.3,   0.00,   0.00, 1006.8,   82.1, -999.0
26-06-2022, 00:44:39,    156,    0.9,    9.3,   0.00,   0.00, 1006.8,   82.2, -999.0
26-06-2022, 00:44:49,    155,    0.7,    9.2,   0.00,   0.00, 1006.8,   82.1, -999.0
26-06-2022, 00:44:59,    154,    0.8,    9.2,   0.00,   0.00, 1006.8,   82.1, -999.0
26-06-2022, 00:45:09,    154,    0.4,    9.2,   0.00,   0.00, 1006.8,   82.1, -999.0
26-06-2022, 00:45:19,    154,    0.0,    9.3,   0.00,   0.00, 1006.7,   82.0, -999.0
26-06-2022, 00:45:29,    154,    0.0,    9.3,   0.00,   0.00, 1006.7,   82.0, -999.0
26-06-2022, 00:45:39,    154,    0.0,    9.3,   0.00,   0.00, 1006.7,   82.1, -999.0
26-06-2022, 00:45:49,    154,    0.0,    9.3,   0.00,   0.00, 1006.7,   82.1, -999.0
26-06-2022, 00:45:59,    154,    0.0,    9.3,   0.00,   0.00, 1006.7,   82.2, -999.0
26-06-2022, 00:46:09,    154,    0.0,    9.3,   0.00,   0.00, 1006.7,   82.1, -999.0
26-06-2022, 00:46:19,    154,    0.0,    9.3,   0.00,   0.00, 1006.7,   82.1, -999.0
26-06-2022, 00:46:28,    158,    0.0,    9.3,   0.00,   0.00, 1006.7,   82.1, -999.0
26-06-2022, 00:46:39,    162,    0.1,    9.3,   0.00,   0.00, 1006.8,   82.2, -999.0
26-06-2022, 00:46:48,    150,    0.2,    9.3,   0.00,   0.00, 1006.7,   82.1, -999.0